Flag for Japan Weather past 2 weeks in Fukuoka, Japan

Now
57 °F

Passing clouds.


Feels Like: 56 °F
Forecast: 53 / 74 °F
Wind: 7 mph from North

Location: Fukuoka Airport

Current Time: Apr 1, 2015 at 7:56:25 PM

Latest Report: Apr 1, 2015 at 7:30 PM


Visibility: 6 mi

Pressure: 29.98 "Hg

Humidity: 82%

Dew point: 52 °F

Location of FukuokaLocation

Historic Weather in Fukuoka — Graph

°F

Fukuoka temperature yesterday

Maximum temperature yesterday: 70 °F (at 1:30 PM)
Minimum temperature yesterday: 52 °F (at 3:30 AM)
Average temperature yesterday: 62 °F

Past Weeks' High & Low Weather Summary

 TemperatureHumidityPressure
High72 °F (Mar 30, 12:30 PM)100% (Mar 19, 3:30 AM)30.57 "Hg (Mar 19, 3:30 AM)
Low34 °F (Mar 26, 4:30 AM)13% (Mar 26, 10:30 AM)29.71 "Hg (Mar 18, 5:00 PM)
Average56 °F61%30.11 "Hg
* Reported Mar 17 6:00 PM — Apr 1 6:30 PM, Fukuoka, Weather by CustomWeather, © 2015

Note: Actual official high and low records may vary slightly from our data, if they occured in-between our weather recording intervals... More about our weather records

Advertising

Fukuoka weather history for previous 24 hours

 ConditionsComfort  
Time TempWeatherWind HumidityBarometerVisibility
6:30 PM
Wed, Apr 1
57 °FPartly sunny.8 mph88%29.95 "Hg5 mi
6:00 PM57 °FBroken clouds.9 mph82%29.95 "Hg6 mi
5:30 PM57 °FBroken clouds.10 mph88%29.95 "Hg6 mi
5:00 PM57 °FBroken clouds.12 mph88%29.95 "Hg5 mi
4:30 PM57 °FBroken clouds.13 mph88%29.95 "Hg5 mi
4:00 PM59 °FBroken clouds.10 mph88%29.92 "Hg4 mi
3:30 PM59 °FSprinkles. Fog.12 mph94%29.92 "Hg3 mi
3:00 PM59 °FSprinkles. Fog.10 mph88%29.92 "Hg3 mi
2:30 PM59 °FSprinkles. Fog.8 mph94%29.92 "Hg3 mi
2:00 PM59 °FSprinkles. Fog.12 mph88%29.92 "Hg3 mi
1:30 PM61 °FFog.9 mph88%29.92 "Hg3 mi
1:00 PM61 °FSprinkles. Fog.12 mph88%29.95 "Hg3 mi
12:30 PM61 °FSprinkles. Fog.12 mph94%29.95 "Hg3 mi
11:45 AM63 °FRain showers. Fog.14 mph94%29.92 "Hg1 mi
11:30 AM64 °FSprinkles. Fog.8 mph94%29.92 "Hg1 mi
11:00 AM66 °FSprinkles. Partly sunny.2 mph88%29.92 "Hg4 mi
10:30 AM66 °FPartly sunny.3 mph88%29.92 "HgN/A
10:00 AM66 °FPartly sunny.8 mph88%29.92 "HgN/A
9:30 AM66 °FPartly sunny.12 mph88%29.92 "HgN/A
9:00 AM66 °FBroken clouds.8 mph88%29.92 "HgN/A
8:30 AM64 °FBroken clouds.12 mph88%29.92 "Hg4 mi
8:00 AM63 °FSprinkles. Broken clouds.12 mph94%29.92 "Hg4 mi
7:30 AM63 °FSprinkles. Broken clouds.15 mph94%29.92 "Hg4 mi
7:00 AM64 °FScattered showers. Broken clouds.15 mph88%29.89 "HgN/A
6:30 AM64 °FBroken clouds.13 mph88%29.89 "HgN/A
6:00 AM64 °FPartly cloudy.13 mph88%29.89 "HgN/A
5:30 AM64 °FPartly cloudy.14 mph88%29.89 "HgN/A
5:00 AM64 °FPartly cloudy.13 mph88%29.89 "HgN/A
4:30 AM64 °FPartly cloudy.13 mph83%29.89 "HgN/A
4:00 AM64 °FPartly cloudy.10 mph83%29.89 "HgN/A
3:30 AM64 °FPartly cloudy.9 mph83%29.89 "HgN/A
3:00 AM64 °FPartly cloudy.14 mph83%29.89 "HgN/A
2:30 AM64 °FPassing clouds.15 mph83%29.89 "HgN/A
2:00 AM64 °FSprinkles. Passing clouds.18 mph83%29.89 "HgN/A
1:30 AM64 °FPassing clouds.17 mph83%29.89 "HgN/A
1:00 AM64 °FSprinkles. Passing clouds.14 mph83%29.92 "HgN/A
12:30 AM64 °FSprinkles. Passing clouds.16 mph83%29.92 "HgN/A
12:00 AM64 °FSprinkles. Passing clouds.17 mph83%29.92 "HgN/A
11:30 PM
Tue, Mar 31
64 °FSprinkles. Passing clouds.18 mph83%29.95 "HgN/A
11:00 PM63 °FPassing clouds.21 mph88%29.95 "HgN/A
10:30 PM63 °FPartly cloudy.23 mph88%29.95 "HgN/A
10:00 PM63 °FPartly cloudy.18 mph88%29.95 "HgN/A
9:30 PM63 °FPartly cloudy.18 mph88%29.95 "HgN/A
9:00 PM63 °FPassing clouds.17 mph88%29.95 "HgN/A
8:30 PM63 °FPassing clouds.12 mph88%29.95 "HgN/A
8:00 PM63 °FPassing clouds.21 mph88%29.95 "HgN/A
7:30 PM63 °FPassing clouds.18 mph88%29.95 "HgN/A
7:00 PM63 °FPassing clouds.16 mph83%29.95 "HgN/A
Weather by CustomWeather, © 2015

See weather overviewHow to use our weather pages